Weather History for Gillette, WY

Change the Weather History Date:

Saturday, March 24, 2012

  Actual Average Record
Temperature  
Mean Temperature 46 °F 37 °F  
Max Temperature 64 °F 50 °F 71 °F (1939)
Min Temperature 28 °F 24 °F -13 °F (1964)
Degree Days  
Heating Degree Days 19 28  
Month to date heating degree days 525 746  
Since 1 July heating degree days 5671 6154  
Cooling Degree Days 0 0  
Month to date cooling degree days 0 0  
Year to date cooling degree days 0 0  
Moisture  
Dew Point 30 °F    
Average Humidity 61    
Maximum Humidity 92    
Minimum Humidity 30    
Precipitation  
Precipitation 0.00 in 0.04 in 0.81 in (1972)
Month to date precipitation 0.03 0.69  
Year to date precipitation 2.09 1.47  
Sea Level Pressure  
Sea Level Pressure 30.08 in    
Wind  
Wind Speed 11 mph (NE)    
Max Wind Speed 26 mph    
Max Gust Speed 32 mph    
Visibility 10 miles    
Events      
T = Trace of Precipitation, MM = Missing Value Source: NWS Daily Summary

Daily Weather History Graph

Daily Weather History Graph

Search for Another Location

Airport:

Trip Planner

Search our weather history database for the weather conditions in past years. The results will help you decide how hot, cold, wet, or windy it might be!

Date:

Astronomy

Mar. 24, 2012 Rise Set
Actual Time 6:56 AM MDT 7:20 PM MDT
Civil Twilight 6:27 AM MDT 7:49 PM MDT
Nautical Twilight 5:53 AM MDT 8:23 PM MDT
Astronomical Twilight 5:18 AM MDT 8:59 PM MDT
Moon 7:31 AM MDT (3/24) 9:49 PM MDT (3/24)
Length of Visible Light 13h 21m
Length of Day
12h 23m
Waxing Crescent, 4% of the Moon is Illuminated
Mar 24
Waxing Crescent
Mar 30
First Quarter
Apr 6
Full
Apr 13
Last Quarter
Apr 21
New

Hourly Weather History & Observations

Time (MDT) Temp. Windchill Dew Point Humidity Pressure Visibility Wind Dir Wind Speed Gust Speed Precip Events Conditions
12:53 AM 41.0 °F 33.9 °F 32.0 °F 70% 29.92 in 10.0 mi NNW 12.7 mph - N/A   Clear
1:53 AM 37.9 °F 32.1 °F 30.9 °F 76% 29.97 in 10.0 mi NW 8.1 mph - N/A   Clear
2:53 AM 33.1 °F 26.1 °F 28.9 °F 85% 30.00 in 10.0 mi NNW 8.1 mph - N/A   Clear
3:53 AM 32.0 °F - 30.0 °F 92% 30.01 in 10.0 mi Calm Calm - N/A   Clear
4:53 AM 32.0 °F 28.7 °F 28.9 °F 88% 30.05 in 10.0 mi NNW 3.5 mph - N/A   Clear
5:53 AM 30.9 °F 22.2 °F 28.9 °F 92% 30.10 in 10.0 mi WNW 10.4 mph - N/A   Clear
6:53 AM 30.9 °F 23.5 °F 28.0 °F 89% 30.14 in 10.0 mi NW 8.1 mph - N/A   Unknown
7:53 AM 33.1 °F 25.5 °F 28.9 °F 85% 30.18 in 10.0 mi NW 9.2 mph - N/A   Clear
8:53 AM 37.0 °F 29.3 °F 28.0 °F 70% 30.17 in 10.0 mi North 11.5 mph - N/A   Clear
9:53 AM 39.0 °F 34.8 °F 28.0 °F 65% 30.16 in 10.0 mi North 5.8 mph - N/A   Clear
10:53 AM 43.0 °F 40.3 °F 28.9 °F 58% 30.17 in 10.0 mi North 4.6 mph - N/A   Clear
11:53 AM 46.9 °F - 30.0 °F 52% 30.16 in 10.0 mi Variable 3.5 mph - N/A   Clear
12:53 PM 50.0 °F - 30.9 °F 48% 30.17 in 10.0 mi Variable 3.5 mph - N/A   Clear
1:53 PM 55.0 °F - 30.9 °F 40% 30.11 in 10.0 mi ENE 10.4 mph - N/A   Clear
2:53 PM 57.0 °F - 30.9 °F 37% 30.10 in 10.0 mi Variable 5.8 mph - N/A   Clear
3:53 PM 60.8 °F - 32.0 °F 34% 30.08 in 10.0 mi ESE 8.1 mph - N/A   Clear
4:53 PM 64.0 °F - 32.0 °F 30% 30.05 in 10.0 mi SSE 11.5 mph 19.6 mph N/A   Clear
5:53 PM 63.0 °F - 30.9 °F 30% 30.05 in 10.0 mi SSE 13.8 mph - N/A   Clear
6:53 PM 59.0 °F - 30.9 °F 35% 30.03 in 10.0 mi SSE 16.1 mph - N/A   Clear
7:53 PM 55.0 °F - 30.9 °F 40% 30.05 in 10.0 mi SSE 16.1 mph 21.9 mph N/A   Clear
8:53 PM 53.1 °F - 28.0 °F 38% 30.05 in 10.0 mi SSE 16.1 mph - N/A   Clear
9:53 PM 51.1 °F - 28.9 °F 43% 30.05 in 10.0 mi South 23.0 mph 31.1 mph N/A   Clear
10:53 PM 48.0 °F - 30.0 °F 50% 30.05 in 10.0 mi SSE 20.7 mph 28.8 mph N/A   Clear
11:53 PM 46.0 °F 38.0 °F 30.0 °F 54% 30.03 in 10.0 mi SSE 21.9 mph 29.9 mph N/A   Clear